Showing default

STARLETTE, 7646

Orbit data source: Space-Track

STARLETTE, 7646 is a payload satellite owned by CNES (FR) in LEO that was launched on Thu, 06 Feb 1975 UTC via a DIAMANT BP.4 launch vehicle from the French Guiana (FRGUI). Payload-class satellites include a variety of spacecraft equipped with specific instruments for various scientific and technological missions. These include communications satellites like Starlink; space stations such as the ISS; scientific satellites like the Hubble; Earth observation satellites from companies like Planet Labs, Umbra, and HawkEye 360; GPS; miniature CubeSats for education and research; and military/defense satellites.

Loading next visibility...
Identifier
7646, 1975-010A
Orbit
LEO
Country
Flag of FRFR
Related business
Manufacturer
CNES
Mission
Operational spacecraft
Bus & Motor
STARLETTE, Unknown motor
Mass
48 kg wet, 48 kg dry
Launch date (UTC)
1975-02-06 (51 years ago)
Launch vehicle
DIAMANT BP.4
Launch site
French Guiana (FRGUI)
Object type
Payload
Rocket body
Debris
Shape & HBR
Unknown
Radar Cross Section
Medium (>0.1 m² and <1 m²)

Expand to show TLE details & history
Last TLE update: 8 hours ago

TLE from 8 hours ago
0 STARLETTE
1 07646U 75010A   25298.93512213 -.00000125  00000-0  15165-4 0  9999
2 07646  49.8244 309.2344 0205680   9.1665 351.2896 13.82345798562130
Epoch: 2025-10-25T22:26Z
TLE epoch observation values (Epoch: 2025-10-25T22:26:34.552Z)
Latitude
0.00001°
Longitude
-61.96809°
Altitude
807.06 km
Speed
7.526 km/s
True Right ascension
20h 36m 56s
True Declination
0° 00' 00"
Sunlit
Object was in daylight at epoch
Visualization orbit readout
Latitude
Unknown
Longitude
Unknown
Altitude
Unknown
Speed
Unknown
Apparent Right ascension
Unknown
Apparent Declination
Unknown
Sunlit
N/A
Visualization observer readout
Local Sidereal Time
01:37:13
Azimuth
Unknown
Elevation
Unknown
Doppler factor
Unknown
Orbital elements
Apogee altitude
1,107.185 km
Perigee altitude
805.474 km
Semi-major axis
7,334.467 km
Eccentricity
0.02057
Inclination
49.8244°
RAAN
309.2344°
Arg. of periapsis
9.1665°
True anomaly
350.92337°
Mean anomaly
351.2896°
Eccentric anomaly
351.10743°
Mean motion
3.45534 °/min
Orbital period
104.19 mins
BSTAR
0.000015165
Loading maneuver chart data...
Computing Atmospheric mass density...
Loading historical data...
Loading historical data...
Loading historical data...
Loading historical data...
Loading historical data...
Loading historical data...
Loading historical data...
Other satellites on launch #10 in the year 1975 (1975-02-06 UTC)

Documentation

Showing up to 5 results
|